Location: Latina
(41.4670°N, 12.8670°E)
Time: 16:58:23
(UTC+02:00)

ISS - Pass Details

Date: 14 May 2021
Orbit: 417 x 422 km, 51.6° (Epoch: 18 June)

Event Time Altitude Azimuth Distance (km) Brightness Sun altitude
Rises 22:47:03 0° 246° (WSW) 2,354 0.2 -21.8°
Reaches altitude 10° 22:49:10 10° 252° (WSW) 1,494 -0.8 -22.0°
Maximum altitude 22:52:27 51° 329° (NNW) 535 -2.9 -22.3°
Enters shadow 22:54:43 18° 41° (NE) 1,103 -1.5 -22.6°
Exits shadow 22:56:36 - 50° (NE) 1,843 -0.4 -22.8°
Sets 22:57:54 0° 52° (NE) 2,372 0.1 -22.9°
